Regional Weather Roundup
Issued by NWS

Home | Current Version | Previous Version | Text Only | Print | Product List | Glossary On
Versions: 1 2 3 4 5 6 7 8 9 10 11 12 13 14 15 16 17 18 19 20 21 22 23 24 25 26 27 28 29 30 31 32 33 34 35 36 37 38 39 40 41 42 43 44 45 46 47 48 49 50
299
ASUS46 KSTO 141909
RWRCA

NORTHERN AND CENTRAL CA REGIONAL WEATHER ROUNDUP
NATIONAL WEATHER SERVICE SACRAMENTO CA
1100 AM PST THU DEC 14 2017

NOTE: FAIR INDICATES FEW OR NO CLOUDS BELOW 12,000 FEET WITH NO
SIGNIFICANT WEATHER AND/OR OBSTRUCTIONS TO VISIBILITY.

CAZ001-003-142000-
NORTHWEST AREA

CITY           SKY/WX    TMP DP  RH WIND       PRES   REMARKS
CRESCENT CITY  SUNNY     56  45  66 N7        30.19S
ARCATA         NOT AVBL
SHELTER COVE   NOT AVBL
UKIAH          SUNNY     53  37  54 CALM      30.13S
$$

CAZ006-505>513-142000-
BAY AREA

CITY           SKY/WX    TMP DP  RH WIND       PRES   REMARKS
SANTA ROSA     MOSUNNY   51  43  74 CALM      30.12S
SAN RAFAEL     N/A       43  MM  MM MISG
NAPA           SUNNY     58  36  43 E13       30.13F
CONCORD        SUNNY     57  42  57 N5        30.14F
OAKLAND CITY   N/A      MM  MM  MM MISG
OAKLAND        MOSUNNY   52  46  80 CALM      30.13F
SAN FRAN CITY  N/A       58  MM  60 MISG
SAN FRAN ARPT  MOSUNNY   54  47  77 NE5       30.12F
LIVERMORE      SUNNY     65  32  29 E9        30.12S
HAYWARD        SUNNY     56  41  57 CALM      30.12F
REDWOOD CITY   N/A       57  MM  69 MISG
MOFFETT ARPT   SUNNY     58  42  55 CALM      30.13F
SAN JOSE ARPT  MOSUNNY   58  38  47 CALM      30.13F
$$
CAZ034-037-514>518-142000-
CENTRAL COAST

CITY           SKY/WX    TMP DP  RH WIND       PRES   REMARKS
WATSONVILLE    SUNNY     61  37  41 CALM      30.11F
SALINAS        SUNNY     59  30  33 E12       30.11F
MONTEREY       SUNNY     66  34  30 CALM      30.09F
PT PIEDRAS BLS NOT AVBL
SAN LUIS OBISP SUNNY     69  21  16 CALM      30.05F
SANTA MARIA    SUNNY     69  22  16 W3        30.06S
$$
CAZ015-016-142000-
NORTHERN SACRAMENTO VALLEY

CITY           SKY/WX    TMP DP  RH WIND       PRES   REMARKS
REDDING          N/A     70  25  18 N14G23    30.12F
RED BLUFF      SUNNY     69  29  22 N15       30.13F
OROVILLE       SUNNY     53  42  66 SE12      30.17R
$$
CAZ016>018-142000-
SOUTHERN SACRAMENTO VALLEY

CITY           SKY/WX    TMP DP  RH WIND       PRES   REMARKS
AUBURN         SUNNY     55  39  54 SE6       30.16R
BEALE AFB      SUNNY     54  42  62 S7        30.14S
LINCOLN        FAIR      55  41  58 S7        30.16R
MARYSVILLE     SUNNY     52  43  71 S7        30.17S
SAC INTL ARPT  SUNNY     52  43  71 S6        30.16S
MATHER AIRPORT SUNNY     32  32 100 CALM      30.16S
DOWNTOWN SAC   N/A       55  MM  MM MISG
SAC EXEC ARPT  SUNNY     54  43  66 S6        30.17R
VACAVILLE      SUNNY     53  40  61 E3        30.16S
TRAVIS AFB     SUNNY     50  40  67 E3        30.14S
$$
CAZ019>021-142000-
SAN JOAQUIN VALLEY

CITY           SKY/WX    TMP DP  RH WIND       PRES   REMARKS
STOCKTON       SUNNY     56  43  61 S7        30.15S HAZE
MODESTO        SUNNY     52  42  69 VRB6      30.16F HAZE
MERCED         SUNNY     53  40  61 SE3       30.16F HAZE
LEMOORE        MOSUNNY   57  37  47 SE5       30.17F HAZE
FRESNO         MOSUNNY   51  38  60 E3        30.17F HAZE
HANFORD        SUNNY     51  37  58 CALM      30.18F HAZE
PORTERVILLE    SUNNY     55  35  47 CALM      30.17F HAZE
BAKERSFIELD    SUNNY     56  31  38 VRB5      30.16S HAZE
$$
CAZ011-012-071-142000-
NORTHERN MOUNTAINS

CITY           SKY/WX    TMP DP  RH WIND       PRES   REMARKS
YREKA          SUNNY     33  28  81 SW5       30.37F WCI  29
MOUNT SHASTA   SUNNY     48  23  37 VRB7      30.30F
ALTURAS        SUNNY     38  23  55 VRB3      30.38F
$$
CAZ011-012-071-142000-
SIERRA NEVADA MTNS

CITY           SKY/WX    TMP DP  RH WIND       PRES   REMARKS
BLUE CANYON    SUNNY     66   8  10 NW3       30.27R
TRUCKEE        SUNNY     36  19  51 CALM      30.38F
TAHOE VLY ARPT SUNNY     45  24  43 CALM      30.34F
MAMMOTH LAKES  FAIR      54   7  15 CALM      30.40F
$$




USA.gov is the U.S. government's official web portal to all federal, state and local government web resources and services.